Wolf Creek Pass, CO

5:09 AM MST on February 21, 2018 (GMT -0700)
Wolf Creek Pass

Weather History for KCPW - February, 2014

Change the Weather History Date:

Monday, February 24, 2014

  Actual Average (KALS) Record (KALS)
Temperature  
Mean Temperature 24 °F -  
Max Temperature 32 °F 44 °F 60 °F (1981)
Min Temperature 17 °F 7 °F -18 °F (1960)
Degree Days  
Heating Degree Days 40    
Moisture  
Dew Point 3 °F    
Average Humidity 39    
Maximum Humidity 50    
Minimum Humidity 30    
Precipitation  
Precipitation 0.00 in - - ()
Sea Level Pressure  
Sea Level Pressure 30.21 in    
Wind  
Wind Speed 18 mph (SW)    
Max Wind Speed 25 mph    
Max Gust Speed 37 mph    
Visibility 10 miles    
Events      
Averages and records for this station are not official NWS values.
T = Trace of Precipitation, MM = Missing Value Source: NWS Daily Summary

Daily Weather History Graph

Daily Weather History Graph

Search for Another Location

Airport or City:

Trip Planner

Search our weather history database for the weather conditions in past years. The results will help you decide how hot, cold, wet, or windy it might be!

Date:

Astronomy

Feb. 24, 2014 Rise Set
Actual Time 6:45 AM MST 5:56 PM MST
Civil Twilight 6:18 AM MST 6:22 PM MST
Nautical Twilight 5:48 AM MST 6:52 PM MST
Astronomical Twilight 5:18 AM MST 7:23 PM MST
Moon 2:42 AM MST (2/24) 1:03 PM MST (2/24)
Length of Visible Light 12h 03m
Length of Day
11h 11m
Waning Crescent, 27% of the Moon is Illuminated
Feb 24
Waning Crescent
Mar 1
New
Mar 8
First Quarter
Mar 16
Full
Mar 23
Last Quarter

Hourly Weather History & Observations

Time (MST) Temp. Windchill Dew Point Humidity Pressure Visibility Wind Dir Wind Speed Gust Speed Precip Events Conditions
12:02 AM 21.2 °F 4.2 °F -4.0 °F 33% 30.19 in 10.0 mi SW 25.3 mph 36.8 mph N/A   Clear
12:22 AM 21.2 °F 4.2 °F -4.0 °F 33% 30.19 in 10.0 mi WSW 25.3 mph - N/A   Clear
12:42 AM 21.2 °F 4.9 °F -5.8 °F 30% 30.18 in 10.0 mi SW 23.0 mph 27.6 mph N/A   Clear
1:02 AM 21.2 °F 6.0 °F -4.0 °F 33% 30.18 in 10.0 mi SW 19.6 mph 27.6 mph N/A   Clear
1:22 AM 19.4 °F 4.5 °F -0.4 °F 42% 30.19 in 10.0 mi SW 17.3 mph - N/A   Clear
1:42 AM 19.4 °F 4.5 °F -0.4 °F 42% 30.19 in 10.0 mi SW 17.3 mph - N/A   Clear
2:02 AM 19.4 °F 4.5 °F -4.0 °F 36% 30.19 in 10.0 mi SW 17.3 mph - N/A   Clear
2:22 AM 21.2 °F 5.2 °F -5.8 °F 30% 30.17 in 10.0 mi SW 21.9 mph - N/A   Clear
2:42 AM 19.4 °F 4.1 °F -2.2 °F 39% 30.17 in 10.0 mi SW 18.4 mph - N/A   Clear
3:02 AM 19.4 °F 4.1 °F -0.4 °F 42% 30.17 in 10.0 mi SW 18.4 mph - N/A   Clear
3:22 AM 19.4 °F 4.5 °F -0.4 °F 42% 30.17 in 10.0 mi SW 17.3 mph - N/A   Clear
3:42 AM 19.4 °F 4.1 °F -4.0 °F 36% 30.17 in 10.0 mi SW 18.4 mph - N/A   Clear
4:02 AM 17.6 °F 1.3 °F -2.2 °F 42% 30.17 in 10.0 mi SW 19.6 mph - N/A   Clear
4:22 AM 17.6 °F 1.3 °F -2.2 °F 42% 30.16 in 10.0 mi SW 19.6 mph - N/A   Clear
4:42 AM 17.6 °F 2.2 °F -2.2 °F 42% 30.17 in 10.0 mi SW 17.3 mph - N/A   Clear
5:02 AM 17.6 °F 2.2 °F -2.2 °F 42% 30.17 in 10.0 mi SW 17.3 mph - N/A   Clear
5:22 AM 17.6 °F 3.7 °F -4.0 °F 38% 30.17 in 10.0 mi SW 13.8 mph - N/A   Clear
5:42 AM 17.6 °F 2.2 °F -4.0 °F 38% 30.17 in 10.0 mi WSW 17.3 mph - N/A   Clear
6:02 AM 19.4 °F 3.2 °F -4.0 °F 36% 30.17 in 10.0 mi WSW 20.7 mph 25.3 mph N/A   Clear
6:22 AM 19.4 °F 4.1 °F -4.0 °F 36% 30.17 in 10.0 mi WSW 18.4 mph 23.0 mph N/A   Clear
6:42 AM 19.4 °F 4.5 °F -4.0 °F 36% 30.17 in 10.0 mi WSW 17.3 mph - N/A   Clear
7:02 AM 19.4 °F 4.5 °F -4.0 °F 36% 30.18 in 10.0 mi SW 17.3 mph 24.2 mph N/A   Clear
7:22 AM 17.6 °F 3.2 °F -2.2 °F 42% 30.19 in 10.0 mi SW 15.0 mph - N/A   Clear
7:42 AM 19.4 °F 5.0 °F -4.0 °F 36% 30.19 in 10.0 mi SW 16.1 mph - N/A   Clear
8:02 AM 21.2 °F 8.9 °F -2.2 °F 36% 30.20 in 10.0 mi WSW 12.7 mph - N/A   Clear
8:22 AM 21.2 °F 7.8 °F -2.2 °F 36% 30.20 in 10.0 mi SW 15.0 mph - N/A   Clear
8:42 AM 23.0 °F 11.7 °F -0.4 °F 36% 30.22 in 10.0 mi SW 11.5 mph - N/A   Clear
9:02 AM 23.0 °F 11.7 °F -0.4 °F 36% 30.22 in 10.0 mi SSW 11.5 mph - N/A   Clear
9:22 AM 24.8 °F 13.4 °F -0.4 °F 34% 30.22 in 10.0 mi SSW 12.7 mph - N/A   Clear
9:42 AM 26.6 °F 15.2 °F 1.4 °F 34% 30.22 in 10.0 mi SSW 13.8 mph - N/A   Clear
10:02 AM 26.6 °F 17.5 °F 1.4 °F 34% 30.23 in 10.0 mi SW 9.2 mph 17.3 mph N/A   Clear
10:22 AM 26.6 °F 18.2 °F 3.2 °F 37% 30.24 in 10.0 mi SW 8.1 mph 16.1 mph N/A   Clear
10:42 AM 28.4 °F 19.7 °F 3.2 °F 34% 30.24 in 10.0 mi SSW 9.2 mph - N/A   Clear
11:02 AM 28.4 °F 21.2 °F 5.0 °F 37% 30.24 in 10.0 mi SW 6.9 mph - N/A   Clear
11:22 AM 30.2 °F 21.3 °F 5.0 °F 34% 30.24 in 10.0 mi SSW 10.4 mph - N/A   Clear
11:42 AM 30.2 °F 20.8 °F 5.0 °F 34% 30.24 in 10.0 mi SSW 11.5 mph 16.1 mph N/A   Clear
12:02 PM 30.2 °F 21.9 °F 5.0 °F 34% 30.24 in 10.0 mi SSW 9.2 mph 18.4 mph N/A   Clear
12:22 PM 32.0 °F 22.5 °F 5.0 °F 32% 30.24 in 10.0 mi SW 12.7 mph 16.1 mph N/A   Clear
12:42 PM 30.2 °F 20.2 °F 5.0 °F 34% 30.24 in 10.0 mi SSW 12.7 mph 20.7 mph N/A   Clear
1:02 PM 32.0 °F 23.0 °F 5.0 °F 32% 30.24 in 10.0 mi SSW 11.5 mph 18.4 mph N/A   Clear
1:22 PM 30.2 °F 20.2 °F 6.8 °F 37% 30.23 in 10.0 mi SW 12.7 mph 20.7 mph N/A   Clear
1:42 PM 32.0 °F 21.6 °F 6.8 °F 35% 30.22 in 10.0 mi SSW 15.0 mph 21.9 mph N/A   Clear
2:02 PM 30.2 °F 19.3 °F 8.6 °F 40% 30.22 in 10.0 mi SW 15.0 mph 23.0 mph N/A   Clear
2:22 PM 30.2 °F 19.3 °F 8.6 °F 40% 30.22 in 10.0 mi SW 15.0 mph 21.9 mph N/A   Clear
2:42 PM 32.0 °F 20.1 °F 10.4 °F 41% 30.22 in 10.0 mi SSW 19.6 mph 25.3 mph N/A   Clear
3:02 PM 32.0 °F 20.5 °F 10.4 °F 41% 30.22 in 10.0 mi SW 18.4 mph 25.3 mph N/A   Clear
3:22 PM 32.0 °F 21.6 °F 10.4 °F 41% 30.22 in 10.0 mi SW 15.0 mph 25.3 mph N/A   Clear
3:42 PM 32.0 °F 20.8 °F 10.4 °F 41% 30.22 in 10.0 mi SW 17.3 mph 27.6 mph N/A   Clear
4:02 PM 32.0 °F 21.6 °F 10.4 °F 41% 30.21 in 10.0 mi SW 15.0 mph 27.6 mph N/A   Clear
4:22 PM 32.0 °F 21.2 °F 10.4 °F 41% 30.22 in 10.0 mi SW 16.1 mph 25.3 mph N/A   Clear
4:42 PM 32.0 °F 20.5 °F 10.4 °F 41% 30.22 in 10.0 mi SW 18.4 mph 28.8 mph N/A   Clear
5:02 PM 32.0 °F 20.1 °F 10.4 °F 41% 30.22 in 10.0 mi SW 19.6 mph 26.5 mph N/A   Clear
5:22 PM 30.2 °F 17.8 °F 8.6 °F 40% 30.21 in 10.0 mi SW 19.6 mph 28.8 mph N/A   Clear
5:42 PM 30.2 °F 18.5 °F 8.6 °F 40% 30.22 in 10.0 mi SW 17.3 mph 26.5 mph N/A   Clear
6:02 PM 28.4 °F 15.4 °F 8.6 °F 43% 30.22 in 10.0 mi SW 19.6 mph 31.1 mph N/A   Clear
6:22 PM 26.6 °F 12.7 °F 8.6 °F 47% 30.22 in 10.0 mi SW 20.7 mph 27.6 mph N/A   Clear
6:42 PM 26.6 °F 12.7 °F 8.6 °F 47% 30.22 in 10.0 mi SW 20.7 mph 29.9 mph N/A   Clear
7:02 PM 26.6 °F 12.4 °F 6.8 °F 43% 30.22 in 10.0 mi SW 21.9 mph 27.6 mph N/A   Clear
7:22 PM 26.6 °F 12.4 °F 5.0 °F 40% 30.23 in 10.0 mi SW 21.9 mph 26.5 mph N/A   Clear
7:42 PM 24.8 °F 10.0 °F 6.8 °F 46% 30.24 in 10.0 mi SW 21.9 mph 25.3 mph N/A   Clear
8:02 PM 24.8 °F 11.9 °F 5.0 °F 43% 30.24 in 10.0 mi SW 16.1 mph 24.2 mph N/A   Clear
8:22 PM 23.0 °F 10.1 °F 5.0 °F 46% 30.24 in 10.0 mi SW 15.0 mph 24.2 mph N/A   Clear
8:42 PM 23.0 °F 10.1 °F 5.0 °F 46% 30.24 in 10.0 mi SW 15.0 mph - N/A   Clear
9:02 PM 23.0 °F 9.6 °F 5.0 °F 46% 30.24 in 10.0 mi SSW 16.1 mph - N/A   Clear
9:22 PM 23.0 °F 9.6 °F 5.0 °F 46% 30.25 in 10.0 mi SW 16.1 mph - N/A   Clear
9:42 PM 23.0 °F 9.2 °F 5.0 °F 46% 30.24 in 10.0 mi SW 17.3 mph - N/A   Clear
10:02 PM 23.0 °F 9.6 °F 5.0 °F 46% 30.25 in 10.0 mi SW 16.1 mph - N/A   Clear
10:22 PM 23.0 °F 9.2 °F 3.2 °F 43% 30.24 in 10.0 mi SW 17.3 mph 20.7 mph N/A   Clear
10:42 PM 23.0 °F 8.3 °F 3.2 °F 43% 30.24 in 10.0 mi SW 19.6 mph - N/A   Clear
11:02 PM 23.0 °F 8.7 °F 5.0 °F 46% 30.24 in 10.0 mi SW 18.4 mph - N/A   Clear
11:22 PM 23.0 °F 9.6 °F 5.0 °F 46% 30.24 in 10.0 mi SW 16.1 mph - N/A   Clear
11:42 PM 21.2 °F 7.8 °F 5.0 °F 50% 30.24 in 10.0 mi SW 15.0 mph - N/A   Clear